Weather History for Rocky Mount, NC

Change the Weather History Date:

Friday, December 30, 2011

  Actual Average Record
Temperature  
Mean Temperature 46 °F -  
Max Temperature 61 °F 55 °F 76 °F (1984)
Min Temperature 30 °F 32 °F 12 °F (1970)
Degree Days  
Heating Degree Days 20    
Moisture  
Dew Point 34 °F    
Average Humidity 63    
Maximum Humidity 89    
Minimum Humidity 38    
Precipitation  
Precipitation 0.00 in - - ()
Sea Level Pressure  
Sea Level Pressure 30.05 in    
Wind  
Wind Speed 5 mph (South)    
Max Wind Speed 12 mph    
Max Gust Speed 20 mph    
Visibility 10 miles    
Events      
Averages and records for this station are not official NWS values.
T = Trace of Precipitation, MM = Missing Value Source: NWS Daily Summary

Daily Weather History Graph

Daily Weather History Graph

Search for Another Location

Airport:

Trip Planner

Search our weather history database for the weather conditions in past years. The results will help you decide how hot, cold, wet, or windy it might be!

Date:

Astronomy

Dec. 30, 2011 Rise Set
Actual Time 7:21 AM EST 5:06 PM EST
Civil Twilight 6:52 AM EST 5:35 PM EST
Nautical Twilight 6:20 AM EST 6:07 PM EST
Astronomical Twilight 5:49 AM EST 6:38 PM EST
Moon 10:52 AM EST (12/30) 11:26 PM EST (12/30)
Length of Visible Light 10h 42m
Length of Day
9h 45m
Waxing Crescent, 35% of the Moon is Illuminated
Dec 30
Waxing Crescent
Jan 1
First Quarter
Jan 9
Full
Jan 16
Last Quarter
Jan 23
New

Hourly Weather History & Observations

Time (EST) Temp. Windchill Dew Point Humidity Pressure Visibility Wind Dir Wind Speed Gust Speed Precip Events Conditions
12:53 AM 35.1 °F 32.2 °F 28.9 °F 78% 30.06 in 10.0 mi SSW 3.5 mph - N/A   Clear
1:53 AM 36.0 °F - 28.9 °F 76% 30.05 in 10.0 mi Calm Calm - N/A   Clear
2:53 AM 33.1 °F - 28.9 °F 85% 30.06 in 10.0 mi Calm Calm - N/A   Clear
3:53 AM 30.9 °F 27.5 °F 28.0 °F 89% 30.07 in 10.0 mi South 3.5 mph - N/A   Clear
4:53 AM 30.0 °F - 27.0 °F 88% 30.07 in 10.0 mi Calm Calm - N/A   Clear
5:53 AM 30.9 °F 26.2 °F 27.0 °F 85% 30.08 in 10.0 mi South 4.6 mph - N/A   Clear
6:53 AM 30.9 °F 27.5 °F 27.0 °F 85% 30.10 in 10.0 mi South 3.5 mph - N/A   Clear
7:53 AM 34.0 °F 28.8 °F 30.0 °F 85% 30.11 in 10.0 mi South 5.8 mph - N/A   Clear
8:53 AM 42.1 °F 37.7 °F 35.1 °F 76% 30.12 in 10.0 mi SSW 6.9 mph - N/A   Clear
9:53 AM 46.9 °F - 35.1 °F 63% 30.13 in 10.0 mi SSW 8.1 mph - N/A   Clear
10:53 AM 51.8 °F - 35.6 °F 54% 30.12 in 10.0 mi SSW 6.9 mph - N/A   Clear
11:53 AM 57.0 °F - 36.0 °F 45% 30.08 in 10.0 mi South 10.4 mph - N/A   Clear
12:53 PM 59.0 °F - 37.4 °F 45% 30.05 in 10.0 mi South 8.1 mph - N/A   Clear
1:53 PM 61.0 °F - 36.0 °F 39% 30.02 in 10.0 mi SSW 11.5 mph - N/A   Clear
2:53 PM 61.0 °F - 35.1 °F 38% 30.01 in 10.0 mi South 11.5 mph - N/A   Clear
3:53 PM 60.1 °F - 35.1 °F 39% 30.01 in 10.0 mi SSW 10.4 mph 19.6 mph N/A   Clear
4:53 PM 57.0 °F - 36.0 °F 45% 30.01 in 10.0 mi South 8.1 mph - N/A   Clear
5:53 PM 52.0 °F - 36.0 °F 54% 30.00 in 10.0 mi South 4.6 mph - N/A   Clear
6:53 PM 54.0 °F - 36.0 °F 51% 30.00 in 10.0 mi SSE 5.8 mph - N/A   Partly Cloudy
7:53 PM 52.0 °F - 37.0 °F 57% 30.00 in 10.0 mi South 8.1 mph - N/A   Clear
8:53 PM 53.1 °F - 37.9 °F 57% 30.01 in 10.0 mi South 9.2 mph - N/A   Mostly Cloudy
9:53 PM 53.1 °F - 39.0 °F 59% 30.01 in 10.0 mi South 9.2 mph - N/A   Scattered Clouds
10:53 PM 53.1 °F - 39.0 °F 59% 30.01 in 10.0 mi South 8.1 mph - N/A   Clear
11:53 PM 54.0 °F - 39.9 °F 59% 29.99 in 10.0 mi South 11.5 mph 19.6 mph N/A   Overcast